Location: Schommer Observatory
(40.5200°N, 74.4500°W)
Time: 16:43:27
(UTC-04:00)

Tiangong 1 - Visible Passes

Search period start: 22 June 2017 00:00
Search period end: 02 July 2017 00:00
Orbit: 321 x 345 km, 42.8° (Epoch: 21 June)

Date Brightness Start Highest point End Pass type
(mag) Time Alt. Az. Time Alt. Az. Time Alt. Az.
22 Jun 0.6 21:54:06 10° WSW 21:56:53 70° SSE 21:59:06 14° ENE visible
22 Jun 3.7 23:29:49 10° W 23:30:18 14° WNW 23:30:18 14° WNW visible
23 Jun 1.1 22:13:34 10° W 22:16:21 65° N 22:18:05 20° ENE visible
24 Jun 1.6 22:33:08 10° W 22:35:51 50° N 22:36:43 34° NE visible
25 Jun 1.1 21:16:47 10° W 21:19:34 66° NNW 21:22:21 10° ENE visible
25 Jun 1.5 22:52:35 10° WNW 22:55:05 51° NNW 22:55:05 51° NNW visible
26 Jun 1.6 21:36:14 10° W 21:38:59 50° N 21:41:43 10° ENE visible
26 Jun 2.8 23:11:56 10° WNW 23:13:19 26° WNW 23:13:19 26° WNW visible
27 Jun 1.4 21:55:37 10° WNW 21:58:23 53° N 22:00:19 17° E visible
27 Jun 3.8 23:31:15 10° W 23:31:27 11° W 23:31:27 11° W visible
28 Jun 0.7 22:14:52 10° WNW 22:17:40 79° NNE 22:18:22 45° E visible
29 Jun 1.4 22:34:06 10° W 22:36:23 44° WSW 22:36:23 44° WSW visible
30 Jun 0.8 21:17:38 10° WNW 21:20:27 78° NNE 21:23:13 10° E visible
30 Jun 3.3 22:53:33 10° W 22:54:21 15° WSW 22:54:21 15° WSW visible
01 Jul 1.0 21:36:46 10° W 21:39:32 53° SSW 21:41:10 21° SE visible
